ANGEL12 KTTS-KTTS

Flight info

Callsign ANGEL12
Flight time 0h 18m
Altitude 5000
Route /
Aircraft HH60/L-V/N

Departure

Time 2026-05-08 21:59
Airport Space Florida Launch and Landing Facility (KTTS)

Arrival

Time 2026-05-08 22:18
Airport Space Florida Launch and Landing Facility (KTTS)
Time Latitude Longitude Altitude Speed Heading
2026-05-08 21:43 28.60033 -80.67956 12 ft 0 kts 148°
2026-05-08 21:43 28.60040 -80.67960 12 ft 0 kts 148°
2026-05-08 21:51 28.60042 -80.67962 12 ft 0 kts 148°
2026-05-08 21:52 28.60043 -80.67961 12 ft 0 kts 201°
2026-05-08 21:52 28.60035 -80.67973 12 ft 2 kts 233°
2026-05-08 21:53 28.60025 -80.67989 11 ft 3 kts 240°
2026-05-08 21:53 28.60014 -80.68008 11 ft 3 kts 224°
2026-05-08 21:53 28.59993 -80.68020 11 ft 4 kts 197°
2026-05-08 21:53 28.59966 -80.68029 10 ft 4 kts 190°
2026-05-08 21:54 28.59935 -80.68038 10 ft 5 kts 195°
2026-05-08 21:54 28.59913 -80.68041 10 ft 6 kts 165°
2026-05-08 21:54 28.59877 -80.68039 10 ft 5 kts 214°
2026-05-08 21:54 28.59848 -80.68054 11 ft 4 kts 195°
2026-05-08 21:55 28.59826 -80.68061 11 ft 2 kts 195°
2026-05-08 21:55 28.59811 -80.68067 11 ft 3 kts 201°
2026-05-08 21:55 28.59782 -80.68081 11 ft 5 kts 204°
2026-05-08 21:56 28.59745 -80.68130 11 ft 3 kts 265°
2026-05-08 21:56 28.59745 -80.68153 11 ft 4 kts 273°
2026-05-08 21:56 28.59749 -80.68176 11 ft 2 kts 283°
2026-05-08 21:56 28.59749 -80.68179 12 ft 0 kts 282°
2026-05-08 21:57 28.59751 -80.68186 12 ft 1 kts 282°
2026-05-08 21:57 28.59758 -80.68237 13 ft 9 kts 276°
2026-05-08 21:58 28.59771 -80.68303 14 ft 8 kts 297°
2026-05-08 21:58 28.59815 -80.68345 14 ft 9 kts 327°
2026-05-08 21:58 28.59868 -80.68389 14 ft 11 kts 338°
2026-05-08 21:58 28.60160 -80.68407 218 ft 81 kts 358°
2026-05-08 21:59 28.60939 -80.68915 328 ft 161 kts 320°
2026-05-08 21:59 28.61494 -80.70074 527 ft 186 kts 282°
2026-05-08 21:59 28.61229 -80.71526 494 ft 180 kts 240°
2026-05-08 21:59 28.60883 -80.72884 654 ft 188 kts 277°
2026-05-08 22:00 28.61451 -80.74247 752 ft 193 kts 309°
2026-05-08 22:00 28.62505 -80.75072 913 ft 176 kts 342°
2026-05-08 22:00 28.63609 -80.75119 858 ft 156 kts 10°
2026-05-08 22:00 28.64746 -80.75013 536 ft 168 kts
2026-05-08 22:01 28.65833 -80.74790 410 ft 151 kts 29°
2026-05-08 22:01 28.66514 -80.74022 391 ft 133 kts 59°
2026-05-08 22:01 28.66956 -80.73090 384 ft 137 kts 70°
2026-05-08 22:01 28.67314 -80.72069 348 ft 132 kts 74°
2026-05-08 22:02 28.67588 -80.71062 662 ft 135 kts 74°
2026-05-08 22:02 28.67848 -80.70010 755 ft 139 kts 76°
2026-05-08 22:02 28.68093 -80.68942 910 ft 139 kts 73°
2026-05-08 22:02 28.68283 -80.67871 1073 ft 136 kts 77°
2026-05-08 22:03 28.68450 -80.66794 1198 ft 143 kts 79°
2026-05-08 22:03 28.68594 -80.65650 1233 ft 148 kts 81°
2026-05-08 22:03 28.68725 -80.64439 1212 ft 157 kts 81°
2026-05-08 22:03 28.68770 -80.63197 1164 ft 159 kts 94°
2026-05-08 22:04 28.68572 -80.61945 1028 ft 164 kts 102°
2026-05-08 22:04 28.67901 -80.60951 987 ft 164 kts 143°
2026-05-08 22:04 28.66860 -80.60439 1091 ft 158 kts 156°
2026-05-08 22:04 28.65825 -80.60114 1261 ft 155 kts 163°
2026-05-08 22:05 28.64775 -80.59844 1102 ft 156 kts 159°
2026-05-08 22:05 28.63746 -80.59458 656 ft 150 kts 157°
2026-05-08 22:05 28.62756 -80.59143 553 ft 147 kts 163°
2026-05-08 22:05 28.61793 -80.58836 572 ft 141 kts 160°
2026-05-08 22:06 28.60794 -80.58591 378 ft 159 kts 166°
2026-05-08 22:06 28.59724 -80.58324 452 ft 147 kts 169°
2026-05-08 22:06 28.58772 -80.58656 707 ft 164 kts 223°
2026-05-08 22:06 28.58252 -80.59948 417 ft 186 kts 244°
2026-05-08 22:07 28.57817 -80.61312 608 ft 187 kts 253°
2026-05-08 22:07 28.57668 -80.62837 613 ft 198 kts 267°
2026-05-08 22:07 28.57749 -80.64370 462 ft 193 kts 281°
2026-05-08 22:07 28.58356 -80.65608 455 ft 168 kts 321°
2026-05-08 22:08 28.59401 -80.65994 495 ft 158 kts 358°
2026-05-08 22:08 28.60533 -80.66168 458 ft 169 kts 359°
2026-05-08 22:08 28.61280 -80.66213 455 ft 170 kts
2026-05-08 22:09 28.61728 -80.66224 475 ft 171 kts
2026-05-08 22:09 28.62946 -80.66297 369 ft 179 kts 353°
2026-05-08 22:09 28.64145 -80.66586 459 ft 170 kts 348°
2026-05-08 22:09 28.65279 -80.66891 594 ft 166 kts 351°
2026-05-08 22:10 28.66388 -80.67232 616 ft 163 kts 339°
2026-05-08 22:10 28.67169 -80.68125 639 ft 157 kts 289°
2026-05-08 22:10 28.66875 -80.69116 639 ft 141 kts 206°
2026-05-08 22:10 28.65925 -80.69538 568 ft 145 kts 198°
2026-05-08 22:11 28.64986 -80.69961 738 ft 140 kts 194°
2026-05-08 22:11 28.64021 -80.69914 788 ft 148 kts 163°
2026-05-08 22:11 28.63044 -80.69568 813 ft 148 kts 151°
2026-05-08 22:11 28.62101 -80.69029 786 ft 154 kts 149°
2026-05-08 22:12 28.61215 -80.68488 758 ft 136 kts 148°
2026-05-08 22:12 28.60383 -80.68029 546 ft 126 kts 149°
2026-05-08 22:12 28.59660 -80.67575 539 ft 118 kts 152°
2026-05-08 22:12 28.58929 -80.67214 568 ft 111 kts 153°
2026-05-08 22:13 28.58201 -80.66837 686 ft 120 kts 153°
2026-05-08 22:13 28.57422 -80.66361 597 ft 131 kts 148°
2026-05-08 22:13 28.56739 -80.65736 691 ft 107 kts 109°
2026-05-08 22:13 28.57090 -80.65256 1015 ft 111 kts 12°
2026-05-08 22:14 28.57869 -80.65286 1059 ft 96 kts 357°
2026-05-08 22:14 28.58393 -80.65462 1176 ft 74 kts 350°
2026-05-08 22:14 28.58869 -80.65618 1338 ft 68 kts 355°
2026-05-08 22:14 28.59386 -80.65619 1423 ft 86 kts
2026-05-08 22:15 28.60097 -80.65458 1168 ft 119 kts 17°
2026-05-08 22:15 28.60867 -80.65252 927 ft 111 kts 15°
2026-05-08 22:15 28.61535 -80.65170 929 ft 83 kts
2026-05-08 22:15 28.62030 -80.65121 949 ft 63 kts
2026-05-08 22:16 28.62457 -80.65072 870 ft 63 kts 357°
2026-05-08 22:16 28.62931 -80.65175 693 ft 78 kts 327°
2026-05-08 22:16 28.63463 -80.65535 600 ft 100 kts 318°
2026-05-08 22:16 28.63996 -80.66136 464 ft 113 kts 316°
2026-05-08 22:17 28.64573 -80.66770 404 ft 110 kts 315°
2026-05-08 22:17 28.64878 -80.67474 474 ft 97 kts 252°
2026-05-08 22:17 28.64571 -80.68039 544 ft 85 kts 191°
2026-05-08 22:17 28.63953 -80.68090 484 ft 86 kts 155°
2026-05-08 22:18 28.63440 -80.67764 485 ft 80 kts 141°
2026-05-08 22:18 28.63053 -80.67494 484 ft 54 kts 149°
2026-05-08 22:18 28.62790 -80.67327 392 ft 39 kts 148°
2026-05-08 22:18 28.62544 -80.67110 271 ft 50 kts 133°
2026-05-08 22:19 28.62285 -80.66884 266 ft 39 kts 152°
2026-05-08 22:19 28.62083 -80.66731 246 ft 32 kts 150°
2026-05-08 22:19 28.61981 -80.66629 220 ft 11 kts 165°
2026-05-08 22:19 28.61963 -80.66577 251 ft 2 kts 154°
2026-05-08 22:20 28.61946 -80.66594 291 ft 9 kts 159°
2026-05-08 22:20 28.61837 -80.66443 445 ft 24 kts 148°
2026-05-08 22:20 28.61889 -80.66322 502 ft 35 kts 342°
2026-05-08 22:20 28.61960 -80.66540 526 ft 84 kts 246°
2026-05-08 22:21 28.61672 -80.67173 663 ft 102 kts 228°
2026-05-08 22:21 28.61285 -80.67615 920 ft 52 kts 160°
2026-05-08 22:21 28.60964 -80.67721 887 ft 45 kts 167°
2026-05-08 22:21 28.60722 -80.67728 807 ft 32 kts 154°
2026-05-08 22:22 28.60568 -80.67589 704 ft 22 kts 140°
2026-05-08 22:22 28.60458 -80.67425 599 ft 30 kts 143°
2026-05-08 22:22 28.60359 -80.67285 545 ft 16 kts 155°
2026-05-08 22:22 28.60325 -80.67206 415 ft 10 kts 138°
2026-05-08 22:23 28.60245 -80.67131 312 ft 16 kts 149°
2026-05-08 22:23 28.60189 -80.67073 319 ft 5 kts 167°
2026-05-08 22:23 28.60179 -80.67041 289 ft 4 kts 145°
2026-05-08 22:23 28.60205 -80.67014 247 ft 3 kts 135°
2026-05-08 22:24 28.60208 -80.67006 427 ft 4 kts 139°
2026-05-08 22:24 28.60243 -80.67024 545 ft 6 kts 139°
2026-05-08 22:24 28.60267 -80.67035 587 ft 2 kts 140°
2026-05-08 22:24 28.60249 -80.66989 694 ft 10 kts 144°
2026-05-08 22:25 28.60156 -80.66902 795 ft 19 kts 139°
2026-05-08 22:25 28.60086 -80.66710 916 ft 27 kts 118°
2026-05-08 22:25 28.60086 -80.66543 999 ft 43 kts 123°
2026-05-08 22:25 28.59724 -80.65916 1104 ft 131 kts 125°
2026-05-08 22:26 28.59226 -80.65207 1507 ft 77 kts 130°
2026-05-08 22:26 28.59017 -80.64933 1356 ft 30 kts 117°
2026-05-08 22:26 28.58935 -80.64699 1323 ft 15 kts 174°
2026-05-08 22:26 28.59023 -80.64602 1314 ft 17 kts 218°
2026-05-08 22:27 28.58903 -80.64484 1455 ft 25 kts 291°
2026-05-08 22:27 28.58698 -80.64481 1619 ft 31 kts 333°
2026-05-08 22:27 28.58523 -80.64453 1651 ft 19 kts 46°
2026-05-08 22:27 28.58569 -80.64336 1392 ft 35 kts 20°
2026-05-08 22:28 28.59072 -80.64170 454 ft 122 kts 22°
2026-05-08 22:28 28.59873 -80.63873 404 ft 120 kts 29°
2026-05-08 22:28 28.60712 -80.63514 331 ft 135 kts 24°
2026-05-08 22:28 28.61623 -80.63410 311 ft 138 kts 346°
2026-05-08 22:29 28.62523 -80.63901 289 ft 146 kts 336°
2026-05-08 22:29 28.63441 -80.64350 415 ft 142 kts 338°
2026-05-08 22:29 28.64338 -80.64875 490 ft 149 kts 334°
2026-05-08 22:29 28.65243 -80.65424 437 ft 147 kts 329°
2026-05-08 22:30 28.66139 -80.65956 495 ft 147 kts 341°
2026-05-08 22:30 28.67063 -80.66480 439 ft 144 kts 321°
2026-05-08 22:30 28.67271 -80.67434 383 ft 124 kts 238°
2026-05-08 22:30 28.66555 -80.67890 450 ft 126 kts 187°
2026-05-08 22:31 28.65592 -80.67986 539 ft 147 kts 180°
2026-05-08 22:31 28.64600 -80.68074 801 ft 144 kts 182°
2026-05-08 22:31 28.63580 -80.68158 919 ft 139 kts 181°
2026-05-08 22:31 28.62703 -80.68307 878 ft 125 kts 194°
2026-05-08 22:32 28.61888 -80.68512 826 ft 114 kts 178°
2026-05-08 22:32 28.61116 -80.68271 714 ft 116 kts 154°
2026-05-08 22:32 28.60444 -80.67803 667 ft 110 kts 143°
2026-05-08 22:32 28.59829 -80.67420 794 ft 114 kts 154°
2026-05-08 22:33 28.59124 -80.67007 689 ft 105 kts 149°
2026-05-08 22:33 28.58530 -80.66682 850 ft 94 kts 153°
2026-05-08 22:33 28.57927 -80.66404 914 ft 93 kts 159°
2026-05-08 22:33 28.57394 -80.66179 1025 ft 79 kts 158°
2026-05-08 22:34 28.56909 -80.66017 1113 ft 71 kts 166°
2026-05-08 22:34 28.56541 -80.65634 1063 ft 80 kts 100°
2026-05-08 22:34 28.56750 -80.65039 1028 ft 89 kts 62°
2026-05-08 22:34 28.57117 -80.64425 945 ft 103 kts 54°
2026-05-08 22:35 28.57565 -80.63721 728 ft 115 kts 62°
2026-05-08 22:35 28.58203 -80.63277 643 ft 104 kts
2026-05-08 22:35 28.58867 -80.63236 787 ft 88 kts 11°
2026-05-08 22:35 28.59423 -80.63151 981 ft 73 kts
2026-05-08 22:36 28.59901 -80.63063 1093 ft 66 kts
2026-05-08 22:36 28.60391 -80.63023 1468 ft 73 kts 20°
2026-05-08 22:36 28.60608 -80.62743 1524 ft 25 kts 123°
2026-05-08 22:36 28.60574 -80.62693 848 ft 21 kts 275°
2026-05-08 22:37 28.60634 -80.62779 708 ft 9 kts 269°
2026-05-08 22:37 28.60643 -80.62794 752 ft 15 kts 258°
2026-05-08 22:37 28.60828 -80.62997 709 ft 73 kts 333°
2026-05-08 22:37 28.61482 -80.63200 487 ft 115 kts 354°
2026-05-08 22:38 28.62250 -80.63303 605 ft 102 kts 349°
2026-05-08 22:38 28.62931 -80.63464 772 ft 96 kts 358°
2026-05-08 22:38 28.63580 -80.63678 911 ft 104 kts 335°
2026-05-08 22:38 28.64219 -80.64119 982 ft 108 kts 325°
2026-05-08 22:39 28.64671 -80.64687 1087 ft 85 kts 267°
2026-05-08 22:39 28.64360 -80.65241 889 ft 103 kts 213°
2026-05-08 22:39 28.63751 -80.65759 693 ft 111 kts 215°
2026-05-08 22:39 28.63120 -80.66351 445 ft 113 kts 205°
2026-05-08 22:40 28.62479 -80.66544 646 ft 86 kts 184°
2026-05-08 22:40 28.61945 -80.66610 839 ft 68 kts 187°
2026-05-08 22:40 28.61491 -80.66789 805 ft 73 kts 196°
2026-05-08 22:40 28.60994 -80.66879 756 ft 75 kts 176°
2026-05-08 22:41 28.60446 -80.66954 684 ft 82 kts 189°
2026-05-08 22:41 28.60085 -80.67008 712 ft 75 kts 176°
2026-05-08 22:41 28.59607 -80.66953 772 ft 64 kts 163°
2026-05-08 22:41 28.59203 -80.66823 725 ft 57 kts 165°
2026-05-08 22:42 28.58829 -80.66783 607 ft 52 kts 169°
2026-05-08 22:42 28.58534 -80.66898 492 ft 32 kts 179°
2026-05-08 22:42 28.58497 -80.67136 390 ft 38 kts 297°
2026-05-08 22:42 28.58613 -80.67422 406 ft 53 kts 318°
2026-05-08 22:43 28.58927 -80.67755 365 ft 69 kts 337°
2026-05-08 22:43 28.59281 -80.67996 174 ft 48 kts 342°
2026-05-08 22:43 28.59508 -80.68142 71 ft 27 kts 348°
2026-05-08 22:43 28.59668 -80.68251 40 ft 23 kts 351°
2026-05-08 22:44 28.59729 -80.68282 14 ft 4 kts 15°
2026-05-08 22:44 28.59756 -80.68247 13 ft 8 kts 94°
2026-05-08 22:44 28.59750 -80.68183 12 ft 10 kts 104°
2026-05-08 22:44 28.59750 -80.68113 11 ft 7 kts 61°
2026-05-08 22:45 28.59790 -80.68074 11 ft 9 kts 17°
2026-05-08 22:45 28.59862 -80.68046 11 ft 13 kts 21°
2026-05-08 22:45 28.59937 -80.68050 11 ft 11 kts 329°
2026-05-08 22:45 28.59989 -80.68085 11 ft 7 kts
2026-05-08 22:46 28.59999 -80.68059 11 ft 2 kts 192°
2026-05-08 22:46 28.59988 -80.68055 11 ft 0 kts 153°
2026-05-08 22:46 28.59986 -80.68053 11 ft 0 kts 152°